Year,Month,Day,Hour,Minute,Value (Times are PST for temperature in C)
2004,08,23,00,00,16.30
2004,08,23,00,01,16.30
2004,08,23,00,02,16.30
2004,08,23,00,03,16.40
2004,08,23,00,04,16.40
2004,08,23,00,05,16.40
2004,08,23,00,06,16.40
2004,08,23,00,07,16.40
2004,08,23,00,08,16.40
2004,08,23,00,09,16.40
2004,08,23,00,10,16.50
2004,08,23,00,11,16.50
2004,08,23,00,12,16.50
2004,08,23,00,13,16.40
2004,08,23,00,14,16.40
2004,08,23,00,15,16.40
2004,08,23,00,16,16.50
2004,08,23,00,17,16.60
2004,08,23,00,18,16.60
2004,08,23,00,19,16.60
2004,08,23,00,20,16.60
2004,08,23,00,21,16.60
2004,08,23,00,22,16.60
2004,08,23,00,23,16.70
2004,08,23,00,24,16.70
2004,08,23,00,25,16.70
2004,08,23,00,26,16.70
2004,08,23,00,27,16.60
2004,08,23,00,28,16.60
2004,08,23,00,29,16.50
2004,08,23,00,30,16.60
2004,08,23,00,31,16.60
2004,08,23,00,32,16.60
2004,08,23,00,33,16.60
2004,08,23,00,34,16.60
2004,08,23,00,35,16.60
2004,08,23,00,36,16.60
2004,08,23,00,37,16.50
2004,08,23,00,38,16.50
2004,08,23,00,39,16.50
2004,08,23,00,40,16.40
2004,08,23,00,41,16.40
2004,08,23,00,42,16.40
2004,08,23,00,43,16.40
2004,08,23,00,44,16.40
2004,08,23,00,45,16.40
2004,08,23,00,46,16.40
2004,08,23,00,47,16.40
2004,08,23,00,48,16.40
2004,08,23,00,49,16.40
2004,08,23,00,50,16.40
2004,08,23,00,51,16.40
2004,08,23,00,52,16.40
2004,08,23,00,53,16.40
2004,08,23,00,54,16.30
2004,08,23,00,55,16.30
2004,08,23,00,56,16.20
2004,08,23,00,57,16.30
2004,08,23,00,58,16.20
2004,08,23,00,59,16.20
2004,08,23,01,00,16.20
2004,08,23,01,01,16.20
2004,08,23,01,02,16.20
2004,08,23,01,03,16.20
2004,08,23,01,04,16.20
2004,08,23,01,05,16.20
2004,08,23,01,06,16.20
2004,08,23,01,07,16.20
2004,08,23,01,08,16.20
2004,08,23,01,09,16.10
2004,08,23,01,10,16.10
2004,08,23,01,11,16.10
2004,08,23,01,12,16.10
2004,08,23,01,13,16.00
2004,08,23,01,14,16.00
2004,08,23,01,15,15.90
2004,08,23,01,16,16.00
2004,08,23,01,17,16.00
2004,08,23,01,18,16.00
2004,08,23,01,19,16.10
2004,08,23,01,20,16.10
2004,08,23,01,21,16.10
2004,08,23,01,22,16.10
2004,08,23,01,23,16.00
2004,08,23,01,24,15.90
2004,08,23,01,25,16.00
2004,08,23,01,26,16.00
2004,08,23,01,27,16.10
2004,08,23,01,28,16.10
2004,08,23,01,29,16.10
2004,08,23,01,30,16.10
2004,08,23,01,31,16.10
2004,08,23,01,32,16.10
2004,08,23,01,33,16.10
2004,08,23,01,34,16.10
2004,08,23,01,35,16.10
2004,08,23,01,36,16.00
2004,08,23,01,37,16.00
2004,08,23,01,38,16.00
2004,08,23,01,39,15.90
2004,08,23,01,40,16.10
2004,08,23,01,41,16.10
2004,08,23,01,42,16.10
2004,08,23,01,43,16.10
2004,08,23,01,44,16.00
2004,08,23,01,45,15.90
2004,08,23,01,46,15.80
2004,08,23,01,47,15.80
2004,08,23,01,48,15.80
2004,08,23,01,49,15.80
2004,08,23,01,50,15.80
2004,08,23,01,51,15.80
2004,08,23,01,52,15.80
2004,08,23,01,53,15.80
2004,08,23,01,54,15.80
2004,08,23,01,55,15.80
2004,08,23,01,56,15.80
2004,08,23,01,57,15.80
2004,08,23,01,58,15.70
2004,08,23,01,59,15.70
2004,08,23,02,00,15.60
2004,08,23,02,01,15.60
2004,08,23,02,02,15.60
2004,08,23,02,03,15.60
2004,08,23,02,04,15.60
2004,08,23,02,05,15.60
2004,08,23,02,06,15.60
2004,08,23,02,07,15.60
2004,08,23,02,08,15.60
2004,08,23,02,09,15.60
2004,08,23,02,10,15.60
2004,08,23,02,11,15.60
2004,08,23,02,12,15.60
2004,08,23,02,13,15.60
2004,08,23,02,14,15.50
2004,08,23,02,15,15.50
2004,08,23,02,16,15.50
2004,08,23,02,17,15.50
2004,08,23,02,18,15.50
2004,08,23,02,19,15.50
2004,08,23,02,20,15.50
2004,08,23,02,21,15.60
2004,08,23,02,22,15.60
2004,08,23,02,23,15.50
2004,08,23,02,24,15.50
2004,08,23,02,25,15.50
2004,08,23,02,26,15.50
2004,08,23,02,27,15.50
2004,08,23,02,28,15.50
2004,08,23,02,29,15.50
2004,08,23,02,30,15.50
2004,08,23,02,31,15.60
2004,08,23,02,32,15.60
2004,08,23,02,33,15.60
2004,08,23,02,34,15.60
2004,08,23,02,35,15.60
2004,08,23,02,36,15.60
2004,08,23,02,37,15.60
2004,08,23,02,38,15.60
2004,08,23,02,39,15.60
2004,08,23,02,40,15.70
2004,08,23,02,41,15.70
2004,08,23,02,42,15.80
2004,08,23,02,43,15.80
2004,08,23,02,44,15.80
2004,08,23,02,45,15.80
2004,08,23,02,46,15.80
2004,08,23,02,47,15.80
2004,08,23,02,48,15.80
2004,08,23,02,49,15.80
2004,08,23,02,50,15.80
2004,08,23,02,51,15.80
2004,08,23,02,52,15.80
2004,08,23,02,53,15.80
2004,08,23,02,54,15.90
2004,08,23,02,55,15.90
2004,08,23,02,56,16.00
2004,08,23,02,57,16.10
2004,08,23,02,58,16.10
2004,08,23,02,59,16.00
2004,08,23,03,00,15.90
2004,08,23,03,01,15.90
2004,08,23,03,02,16.00
2004,08,23,03,03,16.10
2004,08,23,03,04,16.10
2004,08,23,03,05,16.10
2004,08,23,03,06,16.10
2004,08,23,03,07,16.10
2004,08,23,03,08,16.10
2004,08,23,03,09,16.10
2004,08,23,03,10,16.10
2004,08,23,03,11,16.10
2004,08,23,03,12,16.10
2004,08,23,03,13,16.10
2004,08,23,03,14,16.10
2004,08,23,03,15,16.10
2004,08,23,03,16,16.10
2004,08,23,03,17,16.10
2004,08,23,03,18,16.10
2004,08,23,03,19,16.10
2004,08,23,03,20,16.10
2004,08,23,03,21,16.10
2004,08,23,03,22,16.10
2004,08,23,03,23,16.10
2004,08,23,03,24,16.10
2004,08,23,03,25,16.10
2004,08,23,03,26,16.10
2004,08,23,03,27,16.10
2004,08,23,03,28,16.10
2004,08,23,03,29,16.10
2004,08,23,03,30,16.10
2004,08,23,03,31,16.10
2004,08,23,03,32,16.10
2004,08,23,03,33,16.10
2004,08,23,03,34,16.10
2004,08,23,03,35,16.10
2004,08,23,03,36,16.10
2004,08,23,03,37,16.10
2004,08,23,03,38,16.10
2004,08,23,03,39,16.10
2004,08,23,03,40,16.10
2004,08,23,03,41,16.10
2004,08,23,03,42,16.10
2004,08,23,03,43,16.10
2004,08,23,03,44,16.10
2004,08,23,03,45,16.10
2004,08,23,03,46,16.10
2004,08,23,03,47,16.10
2004,08,23,03,48,16.10
2004,08,23,03,49,16.20
2004,08,23,03,50,16.20
2004,08,23,03,51,16.20
2004,08,23,03,52,16.20
2004,08,23,03,53,16.20
2004,08,23,03,54,16.20
2004,08,23,03,55,16.10
2004,08,23,03,56,16.20
2004,08,23,03,57,16.20
2004,08,23,03,58,16.20
2004,08,23,03,59,16.20
2004,08,23,04,00,16.20
2004,08,23,04,01,16.20
2004,08,23,04,02,16.30
2004,08,23,04,03,16.30
2004,08,23,04,04,16.30
2004,08,23,04,05,16.30
2004,08,23,04,06,16.20
2004,08,23,04,07,16.20
2004,08,23,04,08,16.20
2004,08,23,04,09,16.20
2004,08,23,04,10,16.20
2004,08,23,04,11,16.20
2004,08,23,04,12,16.20
2004,08,23,04,13,16.20
2004,08,23,04,14,16.20
2004,08,23,04,15,16.20
2004,08,23,04,16,16.20
2004,08,23,04,17,16.20
2004,08,23,04,18,16.10
2004,08,23,04,19,16.10
2004,08,23,04,20,16.10
2004,08,23,04,21,16.10
2004,08,23,04,22,16.00
2004,08,23,04,23,15.90
2004,08,23,04,24,15.80
2004,08,23,04,25,15.70
2004,08,23,04,26,15.70
2004,08,23,04,27,15.60
2004,08,23,04,28,15.50
2004,08,23,04,29,15.30
2004,08,23,04,30,15.00
2004,08,23,04,31,14.80
2004,08,23,04,32,14.60
2004,08,23,04,33,14.40
2004,08,23,04,34,14.20
2004,08,23,04,35,14.20
2004,08,23,04,36,14.10
2004,08,23,04,37,14.00
2004,08,23,04,38,14.00
2004,08,23,04,39,14.00
2004,08,23,04,40,14.00
2004,08,23,04,41,13.90
2004,08,23,04,42,13.90
2004,08,23,04,43,13.80
2004,08,23,04,44,13.70
2004,08,23,04,45,13.70
2004,08,23,04,46,13.70
2004,08,23,04,47,13.70
2004,08,23,04,48,13.70
2004,08,23,04,49,13.70
2004,08,23,04,50,13.70
2004,08,23,04,51,13.70
2004,08,23,04,52,13.70
2004,08,23,04,53,13.70
2004,08,23,04,54,13.70
2004,08,23,04,55,13.70
2004,08,23,04,56,13.60
2004,08,23,04,57,13.60
2004,08,23,04,58,13.60
2004,08,23,04,59,13.70
2004,08,23,05,00,13.70
2004,08,23,05,01,13.70
2004,08,23,05,02,13.70
2004,08,23,05,03,13.70
2004,08,23,05,04,13.70
2004,08,23,05,05,13.70
2004,08,23,05,06,13.70
2004,08,23,05,07,13.70
2004,08,23,05,08,13.70
2004,08,23,05,09,13.70
2004,08,23,05,10,13.70
2004,08,23,05,11,13.80
2004,08,23,05,12,13.80
2004,08,23,05,13,13.80
2004,08,23,05,14,13.90
2004,08,23,05,15,13.90
2004,08,23,05,16,13.90
2004,08,23,05,17,14.00
2004,08,23,05,18,14.00
2004,08,23,05,19,14.10
2004,08,23,05,20,14.10
2004,08,23,05,21,14.10
2004,08,23,05,22,14.10
2004,08,23,05,23,14.20
2004,08,23,05,24,14.20
2004,08,23,05,25,14.20
2004,08,23,05,26,14.30
2004,08,23,05,27,14.30
2004,08,23,05,28,14.40
2004,08,23,05,29,14.40
2004,08,23,05,30,14.50
2004,08,23,05,31,14.50
2004,08,23,05,32,14.50
2004,08,23,05,33,14.60
2004,08,23,05,34,14.60
2004,08,23,05,35,14.60
2004,08,23,05,36,14.70
2004,08,23,05,37,14.80
2004,08,23,05,38,14.80
2004,08,23,05,39,14.80
2004,08,23,05,40,14.80
2004,08,23,05,41,14.80
2004,08,23,05,42,14.80
2004,08,23,05,43,14.80
2004,08,23,05,44,14.80
2004,08,23,05,45,14.80
2004,08,23,05,46,14.80
2004,08,23,05,47,14.90
2004,08,23,05,48,14.90
2004,08,23,05,49,14.90
2004,08,23,05,50,14.90
2004,08,23,05,51,14.90
2004,08,23,05,52,15.00
2004,08,23,05,53,15.00
2004,08,23,05,54,15.00
2004,08,23,05,55,15.00
2004,08,23,05,56,15.00
2004,08,23,05,57,15.00
2004,08,23,05,58,15.00
2004,08,23,05,59,15.00
2004,08,23,06,00,15.10
2004,08,23,06,01,15.10
2004,08,23,06,02,15.10
2004,08,23,06,03,15.10
2004,08,23,06,04,15.10
2004,08,23,06,05,15.20
2004,08,23,06,06,15.20
2004,08,23,06,07,15.20
2004,08,23,06,08,15.20
2004,08,23,06,09,15.20
2004,08,23,06,10,15.20
2004,08,23,06,11,15.20
2004,08,23,06,12,15.20
2004,08,23,06,13,15.20
2004,08,23,06,14,15.30
2004,08,23,06,15,15.30
2004,08,23,06,16,15.30
2004,08,23,06,17,15.30
2004,08,23,06,18,15.30
2004,08,23,06,19,15.30
2004,08,23,06,20,15.30
2004,08,23,06,21,15.30
2004,08,23,06,22,15.30
2004,08,23,06,23,15.30
2004,08,23,06,24,15.20
2004,08,23,06,25,15.20
2004,08,23,06,26,15.20
2004,08,23,06,27,15.30
2004,08,23,06,28,15.30
2004,08,23,06,29,15.30
2004,08,23,06,30,15.30
2004,08,23,06,31,15.30
2004,08,23,06,32,15.30
2004,08,23,06,33,15.20
2004,08,23,06,34,15.20
2004,08,23,06,35,15.20
2004,08,23,06,36,15.20
2004,08,23,06,37,15.20
2004,08,23,06,38,15.20
2004,08,23,06,39,15.20
2004,08,23,06,40,15.20
2004,08,23,06,41,15.20
2004,08,23,06,42,15.20
2004,08,23,06,43,15.20
2004,08,23,06,44,15.10
2004,08,23,06,45,15.10
2004,08,23,06,46,15.20
2004,08,23,06,47,15.20
2004,08,23,06,48,15.20
2004,08,23,06,49,15.20
2004,08,23,06,50,15.20
2004,08,23,06,51,15.30
2004,08,23,06,52,15.30
2004,08,23,06,53,15.30
2004,08,23,06,54,15.20
2004,08,23,06,55,15.20
2004,08,23,06,56,15.20
2004,08,23,06,57,15.30
2004,08,23,06,58,15.30
2004,08,23,06,59,15.30
2004,08,23,07,00,15.30
2004,08,23,07,01,15.30
2004,08,23,07,02,15.30
2004,08,23,07,03,15.30
2004,08,23,07,04,15.30
2004,08,23,07,05,15.30
2004,08,23,07,06,15.30
2004,08,23,07,07,15.30
2004,08,23,07,08,15.30
2004,08,23,07,09,15.30
2004,08,23,07,10,15.30
2004,08,23,07,11,15.30
2004,08,23,07,12,15.30
2004,08,23,07,13,15.30
2004,08,23,07,14,15.30
2004,08,23,07,15,15.30
2004,08,23,07,16,15.30
2004,08,23,07,17,15.30
2004,08,23,07,18,15.30
2004,08,23,07,19,15.30
2004,08,23,07,20,15.30
2004,08,23,07,21,15.30
2004,08,23,07,22,15.30
2004,08,23,07,23,15.30
2004,08,23,07,24,15.30
2004,08,23,07,25,15.30
2004,08,23,07,26,15.30
2004,08,23,07,27,15.30
2004,08,23,07,28,15.30
2004,08,23,07,29,15.40
2004,08,23,07,30,15.40
2004,08,23,07,31,15.40
2004,08,23,07,32,15.40
2004,08,23,07,33,15.40
2004,08,23,07,34,15.40
2004,08,23,07,35,15.40
2004,08,23,07,36,15.30
2004,08,23,07,37,15.30
2004,08,23,07,38,15.30
2004,08,23,07,39,15.30
2004,08,23,07,40,15.30
2004,08,23,07,41,15.30
2004,08,23,07,42,15.30
2004,08,23,07,43,15.30
2004,08,23,07,44,15.30
2004,08,23,07,45,15.30
2004,08,23,07,46,15.30
2004,08,23,07,47,15.30
2004,08,23,07,48,15.30
2004,08,23,07,49,15.20
2004,08,23,07,50,15.20
2004,08,23,07,51,15.10
2004,08,23,07,52,15.10
2004,08,23,07,53,15.10
2004,08,23,07,54,15.10
2004,08,23,07,55,15.10
2004,08,23,07,56,15.10
2004,08,23,07,57,15.10
2004,08,23,07,58,15.10
2004,08,23,07,59,15.10
2004,08,23,08,00,15.10
2004,08,23,08,01,15.10
2004,08,23,08,02,15.10
2004,08,23,08,03,15.20
2004,08,23,08,04,15.20
2004,08,23,08,05,15.20
2004,08,23,08,06,15.20
2004,08,23,08,07,15.20
2004,08,23,08,08,15.20
2004,08,23,08,09,15.20
2004,08,23,08,10,15.20
2004,08,23,08,11,15.30
2004,08,23,08,12,15.30
2004,08,23,08,13,15.30
2004,08,23,08,14,15.30
2004,08,23,08,15,15.30
2004,08,23,08,16,15.30
2004,08,23,08,17,15.30
2004,08,23,08,18,15.30
2004,08,23,08,19,15.30
2004,08,23,08,20,15.30
2004,08,23,08,21,15.30
2004,08,23,08,22,15.30
2004,08,23,08,23,15.30
2004,08,23,08,24,15.30
2004,08,23,08,25,15.30
2004,08,23,08,26,15.30
2004,08,23,08,27,15.20
2004,08,23,08,28,15.20
2004,08,23,08,29,15.20
2004,08,23,08,30,15.20
2004,08,23,08,31,15.20
2004,08,23,08,32,15.20
2004,08,23,08,33,15.20
2004,08,23,08,34,15.20
2004,08,23,08,35,15.30
2004,08,23,08,36,15.30
2004,08,23,08,37,15.30
2004,08,23,08,38,15.20
2004,08,23,08,39,15.20
2004,08,23,08,40,15.20
2004,08,23,08,41,15.20
2004,08,23,08,42,15.10
2004,08,23,08,43,15.10
2004,08,23,08,44,15.10
2004,08,23,08,45,15.10
2004,08,23,08,46,15.10
2004,08,23,08,47,15.10
2004,08,23,08,48,15.10
2004,08,23,08,49,15.10
2004,08,23,08,50,15.10
2004,08,23,08,51,15.10
2004,08,23,08,52,15.10
2004,08,23,08,53,15.00
2004,08,23,08,54,15.10
2004,08,23,08,55,15.10
2004,08,23,08,56,15.10
2004,08,23,08,57,15.10
2004,08,23,08,58,15.10
2004,08,23,08,59,15.10
2004,08,23,09,00,15.00
2004,08,23,09,01,15.00
2004,08,23,09,02,15.10
2004,08,23,09,03,15.00
2004,08,23,09,04,15.00
2004,08,23,09,05,14.90
2004,08,23,09,06,14.90
2004,08,23,09,07,15.00
2004,08,23,09,08,15.00
2004,08,23,09,09,14.90
2004,08,23,09,10,15.00
2004,08,23,09,11,15.00
2004,08,23,09,12,15.00
2004,08,23,09,13,15.00
2004,08,23,09,14,15.00
2004,08,23,09,15,15.00
2004,08,23,09,16,15.10
2004,08,23,09,17,15.00
2004,08,23,09,18,15.00
2004,08,23,09,19,15.00
2004,08,23,09,20,15.00
2004,08,23,09,21,15.00
2004,08,23,09,22,15.10
2004,08,23,09,23,15.10
2004,08,23,09,24,15.10
2004,08,23,09,25,15.10
2004,08,23,09,26,15.00
2004,08,23,09,27,15.00
2004,08,23,09,28,15.00
2004,08,23,09,29,15.00
2004,08,23,09,30,15.00
2004,08,23,09,31,14.90
2004,08,23,09,32,15.00
2004,08,23,09,33,15.10
2004,08,23,09,34,15.10
2004,08,23,09,35,15.20
2004,08,23,09,36,15.30
2004,08,23,09,37,15.30
2004,08,23,09,38,15.30
2004,08,23,09,39,15.30
2004,08,23,09,40,15.40
2004,08,23,09,41,15.40
2004,08,23,09,42,15.50
2004,08,23,09,43,15.50
2004,08,23,09,44,15.50
2004,08,23,09,45,15.60
2004,08,23,09,46,15.60
2004,08,23,09,47,15.60
2004,08,23,09,48,15.60
2004,08,23,09,49,15.60
2004,08,23,09,50,15.60
2004,08,23,09,51,15.60
2004,08,23,09,52,15.80
2004,08,23,09,53,15.80
2004,08,23,09,54,16.00
2004,08,23,09,55,16.10
2004,08,23,09,56,16.10
2004,08,23,09,57,16.10
2004,08,23,09,58,16.10
2004,08,23,09,59,16.20
2004,08,23,10,00,16.10
2004,08,23,10,01,16.10
2004,08,23,10,02,16.00
2004,08,23,10,03,15.90
2004,08,23,10,04,15.80
2004,08,23,10,05,15.80
2004,08,23,10,06,15.70
2004,08,23,10,07,15.70
2004,08,23,10,08,15.70
2004,08,23,10,09,15.60
2004,08,23,10,10,15.60
2004,08,23,10,11,15.60
2004,08,23,10,12,15.60
2004,08,23,10,13,15.60
2004,08,23,10,14,15.60
2004,08,23,10,15,15.60
2004,08,23,10,16,15.60
2004,08,23,10,17,15.50
2004,08,23,10,18,15.50
2004,08,23,10,19,15.50
2004,08,23,10,20,15.50
2004,08,23,10,21,15.50
2004,08,23,10,22,15.60
2004,08,23,10,23,15.60
2004,08,23,10,24,15.70
2004,08,23,10,25,15.70
2004,08,23,10,26,15.70
2004,08,23,10,27,15.80
2004,08,23,10,28,15.70
2004,08,23,10,29,15.70
2004,08,23,10,30,15.80
2004,08,23,10,31,15.90
2004,08,23,10,32,16.00
2004,08,23,10,33,16.10
2004,08,23,10,34,16.10
2004,08,23,10,35,16.20
2004,08,23,10,36,16.30
2004,08,23,10,37,16.30
2004,08,23,10,38,16.20
2004,08,23,10,39,16.20
2004,08,23,10,40,16.20
2004,08,23,10,41,16.10
2004,08,23,10,42,16.10
2004,08,23,10,43,16.10
2004,08,23,10,44,16.10
2004,08,23,10,45,16.10
2004,08,23,10,46,16.10
2004,08,23,10,47,16.20
2004,08,23,10,48,16.30
2004,08,23,10,49,16.30
2004,08,23,10,50,16.30
2004,08,23,10,51,16.20
2004,08,23,10,52,16.30
2004,08,23,10,53,16.40
2004,08,23,10,54,16.40
2004,08,23,10,55,16.40
2004,08,23,10,56,16.50
2004,08,23,10,57,16.60
2004,08,23,10,58,16.70
2004,08,23,10,59,16.70
2004,08,23,11,00,16.70
2004,08,23,11,01,16.70
2004,08,23,11,02,16.60
2004,08,23,11,03,16.70
2004,08,23,11,04,16.70
2004,08,23,11,05,16.70
2004,08,23,11,06,16.80
2004,08,23,11,07,16.90
2004,08,23,11,08,16.90
2004,08,23,11,09,16.80
2004,08,23,11,10,16.90
2004,08,23,11,11,17.00
2004,08,23,11,12,16.90
2004,08,23,11,13,16.90
2004,08,23,11,14,16.90
2004,08,23,11,15,16.90
2004,08,23,11,16,17.00
2004,08,23,11,17,17.00
2004,08,23,11,18,17.10
2004,08,23,11,19,17.10
2004,08,23,11,20,17.20
2004,08,23,11,21,17.10
2004,08,23,11,22,17.00
2004,08,23,11,23,16.90
2004,08,23,11,24,16.90
2004,08,23,11,25,16.90
2004,08,23,11,26,16.90
2004,08,23,11,27,16.80
2004,08,23,11,28,16.80
2004,08,23,11,29,16.80
2004,08,23,11,30,16.70
2004,08,23,11,31,16.70
2004,08,23,11,32,16.80
2004,08,23,11,33,17.00
2004,08,23,11,34,17.10
2004,08,23,11,35,17.10
2004,08,23,11,36,17.10
2004,08,23,11,37,17.10
2004,08,23,11,38,17.10
2004,08,23,11,39,17.00
2004,08,23,11,40,16.90
2004,08,23,11,41,16.90
2004,08,23,11,42,16.90
2004,08,23,11,43,16.80
2004,08,23,11,44,17.00
2004,08,23,11,45,17.00
2004,08,23,11,46,17.00
2004,08,23,11,47,16.90
2004,08,23,11,48,16.90
2004,08,23,11,49,16.90
2004,08,23,11,50,17.00
2004,08,23,11,51,16.90
2004,08,23,11,52,16.90
2004,08,23,11,53,16.70
2004,08,23,11,54,16.70
2004,08,23,11,55,16.70
2004,08,23,11,56,16.70
2004,08,23,11,57,16.70
2004,08,23,11,58,16.90
2004,08,23,11,59,17.00
2004,08,23,12,00,17.00
2004,08,23,12,01,17.00
2004,08,23,12,02,17.10
2004,08,23,12,03,17.10
2004,08,23,12,04,17.10
2004,08,23,12,05,17.10
2004,08,23,12,06,17.10
2004,08,23,12,07,17.00
2004,08,23,12,08,17.00
2004,08,23,12,09,17.10
2004,08,23,12,10,17.10
2004,08,23,12,11,17.00
2004,08,23,12,12,17.10
2004,08,23,12,13,17.10
2004,08,23,12,14,17.10
2004,08,23,12,15,17.10
2004,08,23,12,16,17.20
2004,08,23,12,17,17.20
2004,08,23,12,18,17.10
2004,08,23,12,19,17.20
2004,08,23,12,20,17.30
2004,08,23,12,21,17.50
2004,08,23,12,22,17.60
2004,08,23,12,23,17.60
2004,08,23,12,24,17.50
2004,08,23,12,25,17.50
2004,08,23,12,26,17.50
2004,08,23,12,27,17.40
2004,08,23,12,28,17.40
2004,08,23,12,29,17.30
2004,08,23,12,30,17.30
2004,08,23,12,31,17.30
2004,08,23,12,32,17.20
2004,08,23,12,33,17.10
2004,08,23,12,34,17.10
2004,08,23,12,35,17.20
2004,08,23,12,36,17.40
2004,08,23,12,37,17.40
2004,08,23,12,38,17.30
2004,08,23,12,39,17.40
2004,08,23,12,40,17.60
2004,08,23,12,41,17.70
2004,08,23,12,42,17.80
2004,08,23,12,43,17.80
2004,08,23,12,44,17.80
2004,08,23,12,45,17.80
2004,08,23,12,46,17.80
2004,08,23,12,47,17.70
2004,08,23,12,48,17.50
2004,08,23,12,49,17.40
2004,08,23,12,50,17.30
2004,08,23,12,51,17.30
2004,08,23,12,52,17.30
2004,08,23,12,53,17.40
2004,08,23,12,54,17.30
2004,08,23,12,55,17.40
2004,08,23,12,56,17.40
2004,08,23,12,57,17.50
2004,08,23,12,58,17.40
2004,08,23,12,59,17.40
2004,08,23,13,00,17.60
2004,08,23,13,01,17.80
2004,08,23,13,02,18.00
2004,08,23,13,03,18.20
2004,08,23,13,04,18.10
2004,08,23,13,05,18.00
2004,08,23,13,06,17.90
2004,08,23,13,07,17.80
2004,08,23,13,08,17.80
2004,08,23,13,09,17.90
2004,08,23,13,10,17.80
2004,08,23,13,11,17.80
2004,08,23,13,12,17.90
2004,08,23,13,13,17.90
2004,08,23,13,14,17.90
2004,08,23,13,15,17.90
2004,08,23,13,16,17.90
2004,08,23,13,17,17.90
2004,08,23,13,18,17.90
2004,08,23,13,19,17.90
2004,08,23,13,20,17.90
2004,08,23,13,21,18.10
2004,08,23,13,22,18.10
2004,08,23,13,23,17.90
2004,08,23,13,24,17.90
2004,08,23,13,25,17.80
2004,08,23,13,26,17.90
2004,08,23,13,27,17.90
2004,08,23,13,28,17.90
2004,08,23,13,29,18.00
2004,08,23,13,30,18.20
2004,08,23,13,31,18.40
2004,08,23,13,32,18.50
2004,08,23,13,33,18.40
2004,08,23,13,34,18.30
2004,08,23,13,35,18.30
2004,08,23,13,36,18.40
2004,08,23,13,37,18.60
2004,08,23,13,38,18.70
2004,08,23,13,39,18.80
2004,08,23,13,40,18.90
2004,08,23,13,41,19.00
2004,08,23,13,42,19.10
2004,08,23,13,43,19.20
2004,08,23,13,44,19.20
2004,08,23,13,45,19.10
2004,08,23,13,46,19.20
2004,08,23,13,47,19.20
2004,08,23,13,48,19.10
2004,08,23,13,49,19.00
2004,08,23,13,50,19.00
2004,08,23,13,51,19.00
2004,08,23,13,52,19.10
2004,08,23,13,53,19.20
2004,08,23,13,54,19.20
2004,08,23,13,55,19.10
2004,08,23,13,56,19.10
2004,08,23,13,57,19.20
2004,08,23,13,58,19.40
2004,08,23,13,59,19.50
2004,08,23,14,00,19.60
2004,08,23,14,01,19.70
2004,08,23,14,02,19.60
2004,08,23,14,03,19.50
2004,08,23,14,04,19.40
2004,08,23,14,05,19.50
2004,08,23,14,06,19.60
2004,08,23,14,07,19.70
2004,08,23,14,08,19.70
2004,08,23,14,09,19.80
2004,08,23,14,10,19.80
2004,08,23,14,11,19.80
2004,08,23,14,12,19.80
2004,08,23,14,13,19.70
2004,08,23,14,14,19.60
2004,08,23,14,15,19.60
2004,08,23,14,16,19.70
2004,08,23,14,17,19.60
2004,08,23,14,18,19.50
2004,08,23,14,19,19.50
2004,08,23,14,20,19.30
2004,08,23,14,21,19.30
2004,08,23,14,22,19.40
2004,08,23,14,23,19.40
2004,08,23,14,24,19.50
2004,08,23,14,25,19.60
2004,08,23,14,26,19.60
2004,08,23,14,27,19.80
2004,08,23,14,28,19.90
2004,08,23,14,29,19.70
2004,08,23,14,30,19.50
2004,08,23,14,31,19.30
2004,08,23,14,32,19.30
2004,08,23,14,33,19.20
2004,08,23,14,34,19.20
2004,08,23,14,35,19.20
2004,08,23,14,36,19.10
2004,08,23,14,37,19.10
2004,08,23,14,38,19.20
2004,08,23,14,39,19.30
2004,08,23,14,40,19.20
2004,08,23,14,41,19.10
2004,08,23,14,42,19.10
2004,08,23,14,43,19.30
2004,08,23,14,44,19.40
2004,08,23,14,45,19.40
2004,08,23,14,46,19.20
2004,08,23,14,47,19.20
2004,08,23,14,48,19.30
2004,08,23,14,49,19.10
2004,08,23,14,50,19.20
2004,08,23,14,51,19.30
2004,08,23,14,52,19.40
2004,08,23,14,53,19.40
2004,08,23,14,54,19.30
2004,08,23,14,55,19.20
2004,08,23,14,56,19.10
2004,08,23,14,57,19.10
2004,08,23,14,58,19.10
2004,08,23,14,59,19.10
2004,08,23,15,00,19.30
2004,08,23,15,01,19.40
2004,08,23,15,02,19.50
2004,08,23,15,03,19.60
2004,08,23,15,04,19.60
2004,08,23,15,05,19.70
2004,08,23,15,06,19.80
2004,08,23,15,07,19.90
2004,08,23,15,08,19.90
2004,08,23,15,09,20.00
2004,08,23,15,10,19.90
2004,08,23,15,11,19.70
2004,08,23,15,12,19.70
2004,08,23,15,13,19.60
2004,08,23,15,14,19.50
2004,08,23,15,15,19.40
2004,08,23,15,16,19.20
2004,08,23,15,17,19.30
2004,08,23,15,18,19.30
2004,08,23,15,19,19.30
2004,08,23,15,20,19.30
2004,08,23,15,21,19.40
2004,08,23,15,22,19.50
2004,08,23,15,23,19.40
2004,08,23,15,24,19.40
2004,08,23,15,25,19.50
2004,08,23,15,26,19.60
2004,08,23,15,27,19.60
2004,08,23,15,28,19.70
2004,08,23,15,29,20.10
2004,08,23,15,30,20.20
2004,08,23,15,31,20.40
2004,08,23,15,32,20.50
2004,08,23,15,33,20.60
2004,08,23,15,34,20.70
2004,08,23,15,35,20.90
2004,08,23,15,36,21.00
2004,08,23,15,37,21.00
2004,08,23,15,38,21.10
2004,08,23,15,39,21.10
2004,08,23,15,40,21.30
2004,08,23,15,41,21.40
2004,08,23,15,42,21.40
2004,08,23,15,43,21.40
2004,08,23,15,44,21.30
2004,08,23,15,45,21.30
2004,08,23,15,46,21.30
2004,08,23,15,47,21.30
2004,08,23,15,48,21.40
2004,08,23,15,49,21.30
2004,08,23,15,50,21.30
2004,08,23,15,51,21.30
2004,08,23,15,52,21.30
2004,08,23,15,53,21.00
2004,08,23,15,54,20.90
2004,08,23,15,55,20.80
2004,08,23,15,56,20.60
2004,08,23,15,57,20.50
2004,08,23,15,58,20.50
2004,08,23,15,59,20.60
2004,08,23,16,00,20.70
2004,08,23,16,01,20.80
2004,08,23,16,02,20.90
2004,08,23,16,03,21.00
2004,08,23,16,04,21.20
2004,08,23,16,05,21.30
2004,08,23,16,06,21.30
2004,08,23,16,07,21.50
2004,08,23,16,08,21.60
2004,08,23,16,09,21.60
2004,08,23,16,10,21.60
2004,08,23,16,11,21.50
2004,08,23,16,12,21.50
2004,08,23,16,13,21.50
2004,08,23,16,14,21.40
2004,08,23,16,15,21.20
2004,08,23,16,16,21.00
2004,08,23,16,17,20.90
2004,08,23,16,18,20.80
2004,08,23,16,19,20.90
2004,08,23,16,20,20.90
2004,08,23,16,21,21.00
2004,08,23,16,22,21.00
2004,08,23,16,23,21.00
2004,08,23,16,24,21.10
2004,08,23,16,25,21.20
2004,08,23,16,26,21.10
2004,08,23,16,27,21.10
2004,08,23,16,28,21.00
2004,08,23,16,29,21.00
2004,08,23,16,30,20.90
2004,08,23,16,31,20.90
2004,08,23,16,32,20.80
2004,08,23,16,33,20.70
2004,08,23,16,34,20.80
2004,08,23,16,35,20.90
2004,08,23,16,36,21.00
2004,08,23,16,37,20.80
2004,08,23,16,38,20.80
2004,08,23,16,39,20.70
2004,08,23,16,40,20.70
2004,08,23,16,41,20.80
2004,08,23,16,42,20.80
2004,08,23,16,43,20.80
2004,08,23,16,44,20.90
2004,08,23,16,45,21.00
2004,08,23,16,46,21.10
2004,08,23,16,47,21.30
2004,08,23,16,48,21.40
2004,08,23,16,49,21.40
2004,08,23,16,50,21.40
2004,08,23,16,51,21.40
2004,08,23,16,52,21.50
2004,08,23,16,53,21.60
2004,08,23,16,54,21.60
2004,08,23,16,55,21.80
2004,08,23,16,56,22.00
2004,08,23,16,57,21.90
2004,08,23,16,58,21.60
2004,08,23,16,59,21.40
2004,08,23,17,00,21.30
2004,08,23,17,01,21.10
2004,08,23,17,02,21.00
2004,08,23,17,03,20.90
2004,08,23,17,04,21.00
2004,08,23,17,05,21.00
2004,08,23,17,06,21.00
2004,08,23,17,07,21.00
2004,08,23,17,08,20.90
2004,08,23,17,09,20.90
2004,08,23,17,10,20.80
2004,08,23,17,11,20.80
2004,08,23,17,12,20.80
2004,08,23,17,13,20.90
2004,08,23,17,14,21.00
2004,08,23,17,15,21.00
2004,08,23,17,16,21.00
2004,08,23,17,17,21.00
2004,08,23,17,18,21.00
2004,08,23,17,19,21.10